Wind_Speed
11 11 11 11 11 11 11 10 10 10 10 11 11 11 11 12 12 11 10 10 10 10 10 10 10 10 11 11 11 12 12 12 11 11 10 10 10 11 10 11 10 10 10
10 11 11 12 12 12 12 11 10 10 11 11 11 11 12 12 12 12 12 11 10 10 10 11 11 11 11 12 11 11 12 12 12 11 11 10 10 10 10 10 10 10 10
10 10 11 11 12 12 12 11 11 11 11 10 10 11 12 13 13 13 12 12 11 11 11 11 11 11 11 11 11 11 11 12 12 12 12 12 11 11 10 10 10 10 11
11 11 11 11 12 12 11 12 12 12 12 11 11 12 12 13 13 13 12 12 12 11 11 11 11 11 11 10 10 11 11 12 12 12 12 12 12 12 11 11 11 11 11
12 12 12 12 12 12 12 13 13 13 13 12 12 12 12 13 13 12 12 12 12 12 12 12 12 11 11 11 10 11 11 11 11 11 12 12 12 12 12 12 11 11 11
13 12 12 12 13 13 13 13 13 14 14 14 13 13 13 13 13 13 13 13 13 13 12 12 13 12 12 11 11 11 12 12 12 12 12 12 12 12 12 12 12 12 12
12 12 13 13 13 13 13 13 14 14 15 15 14 14 14 14 14 13 13 13 13 13 13 13 13 13 12 12 12 12 12 12 12 12 12 12 12 12 12 12 12 13 12
12 13 13 13 13 14 14 14 15 15 15 15 15 14 14 14 14 13 13 13 13 13 13 13 14 13 13 13 13 13 12 13 13 13 13 13 13 14 14 13 13 14 14
12 13 13 13 13 14 14 15 15 16 16 15 16 15 16 16 15 14 14 13 14 15 15 15 15 14 14 14 14 14 14 14 14 14 14 14 14 15 15 15 15 15 15
13 13 13 13 13 14 15 15 16 16 16 16 16 16 16 16 16 16 16 15 15 15 15 14 15 15 15 15 15 15 15 15 15 15 15 15 15 15 16 16 16 16 16
14 14 14 14 14 14 15 15 16 16 16 17 17 17 17 16 17 17 18 17 17 16 16 16 16 16 16 17 17 17 17 17 17 16 16 16 17 17 17 16 17 17 17
15 15 16 16 15 15 15 15 16 16 16 17 17 17 18 18 18 19 19 18 18 18 18 18 18 18 19 19 19 19 18 18 18 18 18 18 18 18 18 18 18 17 17
16 17 17 17 17 16 16 16 16 16 17 18 18 19 19 19 19 20 20 20 19 19 19 19 20 21 20 20 20 20 20 20 20 20 19 19 18 19 19 19 19 19 19
18 17 17 18 18 18 17 17 17 18 18 19 19 20 20 20 20 20 20 20 20 21 21 22 22 23 22 21 21 21 22 22 22 22 22 21 21 20 19 19 20 20 20
18 17 17 18 18 19 19 19 19 20 20 20 20 20 20 20 20 20 20 20 21 22 22 23 23 23 23 23 23 23 22 23 23 23 23 23 22 22 21 21 21 22 22
19 18 18 19 18 19 19 19 20 20 20 20 20 21 21 21 21 21 22 22 22 23 23 23 24 24 24 24 24 24 24 24 24 24 25 24 25 24 24 24 24 24 24
19 19 19 20 20 19 19 20 21 21 21 21 22 22 23 22 22 22 22 23 23 24 25 25 24 24 24 24 25 26 26 26 26 26 26 26 26 27 26 26 26 25 25
21 21 21 21 21 21 21 21 21 21 22 22 23 24 24 23 23 24 23 24 24 25 25 25 25 25 25 25 26 27 27 27 27 27 27 27 27 28 28 28 27 27 27
22 22 22 22 22 22 22 22 21 22 22 23 23 24 24 24 24 24 24 24 24 25 25 26 26 27 27 27 27 27 27 27 27 27 28 28 28 28 29 30 29 29 29
22 23 23 23 23 23 23 23 23 23 23 23 23 24 24 24 25 25 25 25 25 25 26 26 27 27 28 28 27 27 28 28 28 28 29 29 29 29 29 30 30 29 30
23 24 23 24 24 25 24 24 24 25 25 25 24 25 25 25 26 26 26 26 26 26 26 26 27 27 28 28 29 28 29 29 29 29 30 30 30 30 30 31 31 31 31
24 24 25 25 25 25 25 25 26 26 26 27 27 27 27 27 27 27 27 27 27 27 27 27 27 27 28 29 29 29 29 29 29 30 31 31 31 31 31 31 31 32 32
24 25 25 25 25 26 26 26 27 27 27 27 28 29 29 29 29 28 28 28 28 28 28 28 27 27 27 28 29 30 30 30 30 30 30 31 31 31 31 31 30 31 32
25 25 25 25 25 26 26 26 27 27 27 27 28 28 29 29 29 29 29 29 29 28 29 29 28 28 28 28 28 29 28 28 29 29 30 30 31 32 32 32 32 32 32
26 26 25 25 25 25 26 27 27 27 27 27 28 28 28 29 28 29 29 29 29 29 29 29 29 29 29 29 29 29 27 27 28 28 29 30 30 31 31 33 33 32 32
25 26 26 26 26 26 27 28 28 28 28 28 28 29 29 29 29 30 30 29 29 29 29 29 30 30 30 30 30 30 30 29 28 28 28 29 29 30 30 31 32 32 33
Wind_Direction
275 277 278 277 278 281 278 279 282 285 287 287 287 285 282 280 278 281 279 276 276 271 267 266 265 263 262 260 259 262 262 263 265 266 265 265 268 267 268 271 275 277 277
275 275 277 278 278 279 277 277 279 282 283 283 283 282 282 280 279 278 273 270 272 270 268 267 265 263 264 262 263 264 263 262 265 266 265 265 266 267 269 273 275 276 278
279 275 277 283 281 280 279 275 274 278 280 283 284 281 281 280 280 276 272 268 268 264 266 269 266 263 263 262 262 264 263 263 265 265 264 265 266 266 268 270 273 277 279
284 282 281 283 281 282 283 280 278 278 279 283 286 279 279 280 279 277 273 268 264 262 262 263 263 265 264 263 265 267 266 266 265 264 264 264 264 265 266 268 273 276 277
286 286 288 285 285 287 286 283 283 283 280 279 282 281 280 281 279 277 273 270 264 262 261 263 262 262 262 261 264 267 267 266 265 265 265 265 263 264 267 267 270 273 275
291 289 291 287 284 285 285 285 283 281 279 277 278 277 277 279 279 277 274 271 268 265 263 263 262 258 257 260 263 265 267 266 265 265 265 264 262 262 266 267 267 269 273
288 290 289 287 285 284 284 285 285 281 278 275 274 275 273 277 277 274 273 271 269 265 265 262 260 258 260 262 264 265 265 264 265 263 264 264 264 263 265 266 266 267 269
283 285 285 284 283 281 282 283 285 284 281 274 271 272 270 271 273 269 267 267 268 267 264 261 261 261 262 263 262 264 265 267 266 263 265 266 266 264 266 266 266 268 269
282 284 284 283 281 279 279 279 281 281 282 277 274 272 272 270 267 266 265 266 266 266 266 263 260 260 261 262 263 263 264 267 267 266 266 265 266 267 267 268 268 268 269
282 283 283 283 283 282 279 278 278 279 279 279 275 271 270 269 269 268 268 268 266 264 267 267 264 261 261 261 262 263 264 266 267 267 266 267 269 270 269 268 268 269 269
283 283 282 284 283 283 282 279 278 278 277 278 276 272 268 266 268 268 267 266 264 262 263 264 263 263 261 260 261 263 263 264 266 267 269 269 270 269 268 267 268 269 269
283 283 285 286 284 285 283 280 279 278 277 276 277 274 271 269 269 269 267 264 262 261 262 263 263 263 264 263 261 262 262 263 264 266 267 269 270 269 267 267 268 268 269
284 283 285 286 285 286 286 283 279 278 277 276 277 277 277 274 271 269 266 265 261 261 261 262 263 264 266 266 263 262 262 262 263 264 265 267 269 270 268 266 267 267 267
286 284 285 285 284 284 285 284 280 277 276 275 276 277 277 276 272 269 268 267 264 263 263 262 264 265 266 265 265 264 262 261 262 264 265 266 268 268 267 267 267 266 266
287 287 286 284 283 283 283 282 280 277 275 275 276 278 278 278 275 271 270 269 268 266 266 265 264 265 265 264 265 264 262 261 262 264 264 265 267 268 268 267 267 267 267
287 288 287 285 284 282 282 281 278 276 275 275 275 277 277 277 275 274 271 271 271 269 268 268 264 265 266 265 266 265 265 263 263 263 265 265 264 265 267 267 267 267 267
286 288 289 288 286 284 283 282 281 277 275 276 276 277 276 276 275 274 273 272 272 271 271 272 268 266 265 266 267 267 266 265 265 265 264 264 263 263 264 266 267 268 269
285 286 287 287 286 286 286 285 283 280 278 277 277 277 277 276 276 275 275 275 274 273 273 272 271 268 266 266 266 267 266 265 265 265 265 265 264 263 264 264 265 267 268
283 284 285 285 285 285 285 284 283 282 281 279 278 278 278 278 277 276 275 276 276 276 276 274 273 271 269 267 268 268 266 266 265 265 265 265 265 264 264 263 264 265 267
282 282 283 284 284 285 285 284 283 282 281 280 279 279 280 279 278 276 275 276 277 276 276 276 276 275 273 271 269 269 267 267 266 266 266 266 266 266 265 264 264 265 267
284 283 282 282 283 283 284 283 283 283 281 279 279 279 280 280 279 277 277 277 277 277 276 276 277 276 275 274 271 269 268 268 267 268 267 266 267 267 266 265 265 265 266
286 285 285 283 282 282 282 283 283 283 281 279 279 279 278 278 278 277 277 278 277 276 275 276 276 276 275 275 274 271 270 269 269 268 268 267 266 266 266 266 266 266 266
286 287 287 285 282 281 282 282 282 281 281 280 279 278 278 278 278 277 277 277 277 276 275 276 276 276 276 275 274 276 272 270 269 269 268 267 266 265 265 266 266 267 267
286 286 286 285 285 284 284 283 284 282 281 281 281 279 278 278 278 277 277 277 276 276 276 275 275 275 276 277 276 277 274 271 271 271 270 269 267 266 267 267 267 267 267
284 284 284 285 285 286 285 284 284 284 283 282 281 281 280 279 278 278 278 277 277 276 276 275 274 274 274 275 275 276 277 275 275 273 271 271 270 269 268 268 267 267 266
282 282 282 283 284 284 285 286 284 284 283 283 281 280 280 280 279 278 278 277 277 277 276 275 274 273 273 274 275 275 276 276 276 275 274 272 272 271 271 270 268 267 267
Height
5840 5839 5839 5838 5838 5838 5838 5837 5837 5836 5835 5834 5833 5833 5832 5831 5830 5829 5829 5828 5828 5827 5827 5827 5828 5828 5829 5829 5830 5830 5831 5831 5831 5832 5832 5832 5831 5831 5831 5831 5830 5830 5829
5837 5837 5836 5836 5835 5835 5834 5834 5833 5833 5832 5831 5830 5829 5829 5827 5827 5826 5825 5825 5824 5824 5824 5824 5825 5825 5825 5826 5826 5827 5827 5828 5828 5829 5829 5829 5829 5828 5828 5828 5827 5827 5826
5835 5834 5834 5833 5832 5832 5831 5830 5830 5829 5828 5827 5826 5826 5825 5824 5823 5822 5822 5821 5821 5821 5821 5821 5821 5822 5822 5822 5823 5824 5824 5825 5825 5825 5826 5825 5825 5825 5825 5825 5825 5824 5823
5832 5831 5830 5830 5829 5829 5828 5827 5826 5825 5825 5824 5823 5822 5822 5821 5819 5819 5818 5818 5818 5818 5818 5818 5818 5819 5819 5820 5820 5821 5821 5822 5822 5822 5822 5822 5822 5822 5823 5822 5821 5821 5820
5828 5827 5827 5826 5825 5825 5824 5823 5822 5822 5821 5820 5820 5820 5819 5817 5816 5815 5815 5815 5814 5815 5815 5815 5815 5816 5816 5817 5817 5818 5818 5818 5818 5819 5819 5819 5819 5819 5819 5819 5819 5818 5818
5825 5824 5823 5822 5822 5821 5820 5819 5819 5818 5818 5817 5817 5816 5815 5814 5813 5812 5812 5811 5811 5811 5811 5812 5812 5812 5813 5814 5814 5814 5815 5815 5815 5815 5815 5815 5815 5816 5816 5815 5815 5815 5815
5822 5821 5820 5819 5818 5817 5816 5815 5815 5814 5814 5813 5813 5812 5812 5811 5810 5809 5808 5808 5808 5808 5808 5809 5809 5810 5810 5811 5811 5811 5811 5811 5811 5812 5812 5812 5812 5812 5812 5812 5811 5811 5811
5818 5817 5817 5816 5814 5813 5812 5812 5811 5810 5809 5809 5808 5808 5807 5807 5806 5806 5805 5805 5805 5805 5805 5806 5806 5806 5807 5807 5808 5808 5808 5808 5808 5808 5808 5808 5808 5808 5808 5808 5808 5808 5807
5815 5814 5813 5812 5811 5810 5809 5808 5807 5806 5805 5804 5804 5804 5803 5803 5802 5802 5801 5801 5802 5802 5802 5802 5803 5803 5803 5804 5804 5804 5804 5804 5804 5804 5804 5804 5804 5804 5804 5804 5804 5804 5803
5811 5810 5809 5808 5807 5806 5805 5804 5803 5802 5801 5801 5800 5799 5799 5799 5798 5798 5798 5798 5797 5797 5798 5798 5798 5799 5799 5800 5799 5800 5800 5800 5800 5800 5800 5800 5799 5799 5799 5799 5799 5799 5799
5807 5806 5805 5804 5803 5802 5801 5799 5798 5797 5797 5796 5795 5795 5795 5794 5793 5793 5793 5793 5793 5793 5793 5794 5794 5794 5794 5795 5795 5795 5795 5795 5795 5795 5795 5795 5795 5795 5794 5794 5794 5794 5794
5802 5801 5800 5799 5798 5797 5796 5795 5794 5793 5792 5791 5790 5790 5790 5789 5788 5788 5787 5788 5788 5788 5788 5788 5788 5789 5789 5789 5789 5789 5789 5790 5790 5790 5790 5790 5789 5789 5789 5789 5789 5789 5789
5797 5796 5795 5794 5793 5792 5791 5790 5789 5788 5787 5786 5785 5785 5784 5784 5783 5782 5782 5782 5782 5782 5783 5783 5783 5783 5783 5783 5783 5783 5784 5784 5784 5784 5784 5784 5784 5784 5784 5784 5784 5784 5784
5792 5791 5790 5789 5788 5787 5786 5785 5784 5783 5782 5781 5780 5779 5778 5778 5777 5776 5776 5776 5776 5776 5776 5776 5776 5776 5776 5776 5777 5777 5777 5777 5777 5778 5778 5778 5778 5778 5778 5778 5778 5778 5778
5786 5785 5785 5783 5782 5781 5780 5779 5778 5777 5776 5775 5774 5773 5772 5771 5771 5770 5770 5770 5769 5769 5769 5769 5769 5769 5769 5769 5770 5770 5770 5770 5771 5771 5771 5771 5771 5771 5771 5771 5771 5771 5771
5780 5779 5778 5777 5776 5775 5774 5773 5772 5771 5770 5769 5768 5767 5766 5765 5765 5764 5764 5764 5763 5763 5762 5762 5762 5762 5762 5762 5762 5763 5763 5763 5763 5764 5764 5764 5764 5764 5764 5764 5764 5764 5764
5774 5773 5772 5771 5770 5769 5768 5767 5766 5764 5764 5763 5762 5761 5760 5759 5758 5758 5757 5757 5756 5756 5755 5755 5754 5754 5754 5755 5755 5755 5755 5755 5756 5756 5756 5756 5756 5756 5756 5756 5756 5757 5757
5768 5767 5766 5765 5763 5762 5761 5760 5759 5758 5757 5756 5755 5754 5753 5752 5752 5751 5750 5750 5749 5748 5748 5747 5747 5747 5747 5747 5746 5746 5746 5747 5747 5747 5748 5748 5748 5748 5748 5748 5748 5748 5748
5761 5760 5759 5758 5757 5756 5754 5753 5752 5751 5750 5749 5748 5747 5746 5745 5744 5744 5743 5742 5741 5741 5740 5740 5739 5739 5739 5738 5738 5738 5738 5738 5738 5738 5739 5739 5739 5739 5739 5739 5740 5740 5740
5754 5753 5752 5750 5749 5748 5747 5746 5745 5743 5742 5741 5740 5739 5738 5737 5736 5736 5735 5734 5734 5733 5732 5732 5731 5730 5730 5729 5729 5729 5729 5729 5729 5729 5730 5730 5730 5730 5729 5729 5730 5730 5730
5747 5745 5744 5743 5741 5740 5739 5738 5737 5736 5735 5733 5732 5731 5730 5729 5728 5728 5727 5726 5726 5725 5724 5723 5723 5722 5721 5721 5720 5720 5720 5720 5720 5720 5720 5720 5720 5720 5720 5720 5720 5721 5721
5739 5738 5736 5735 5734 5732 5731 5730 5729 5728 5726 5725 5724 5724 5722 5721 5720 5719 5718 5718 5717 5716 5715 5715 5714 5713 5713 5712 5711 5710 5710 5710 5710 5710 5710 5710 5710 5710 5710 5710 5710 5710 5710
5732 5730 5729 5727 5726 5724 5723 5722 5721 5719 5718 5717 5715 5714 5713 5712 5711 5710 5710 5709 5708 5708 5707 5706 5705 5704 5703 5703 5702 5701 5701 5701 5700 5700 5700 5700 5700 5700 5700 5700 5700 5700 5700
5724 5722 5721 5719 5718 5717 5715 5714 5712 5710 5709 5708 5706 5705 5704 5703 5702 5701 5700 5700 5699 5698 5698 5697 5696 5695 5695 5694 5693 5692 5692 5691 5691 5690 5690 5689 5689 5690 5690 5690 5690 5690 5690
5716 5714 5713 5711 5710 5709 5707 5705 5704 5702 5700 5699 5697 5696 5695 5694 5693 5692 5691 5690 5690 5689 5688 5687 5687 5686 5685 5685 5684 5683 5682 5682 5681 5681 5681 5680 5680 5679 5680 5680 5680 5680 5680
5707 5706 5704 5703 5702 5701 5699 5697 5695 5693 5692 5690 5688 5687 5686 5684 5683 5682 5681 5680 5680 5679 5678 5677 5677 5676 5676 5675 5674 5674 5673 5672 5672 5671 5671 5670 5670 5670 5669 5669 5669 5669 5669